Hourly Data Report for October 07, 2014

All times are specified in Local Standard Time (LST). Add 1 hour to adjust for Daylight Saving Time where and when it is observed.

CAPE DORSET A
NUNAVUT

64°13'49.000" N
76°31'30.000" W
48.20 m
2400637
71366
YTE

Download Data

Hourly Data (October 2014)
Hourly Data Report for October 7, 2014
Temp Definition
°C
Dew Point Temp Definition
°C
Rel Hum Definition
%
Wind Dir Definition
10's deg

Wind Spd Definition
km/h
Visibility Definition
km
Stn Press Definition
kPa
Hmdx Definition


Wind Chill Definition


Weather Definition


TIME
00:00 Legend Double Dagger 1.9 0.4 90 9 48 16.1 100.69     LegendNANA
01:00 Legend Double Dagger 1.5 0.2 91 10 46 12.9 100.70     LegendNANA
02:00 Legend Double Dagger 1.3 0.1 92 10 43 9.7 100.74     Fog
03:00 Legend Double Dagger 1.1 0.7 97 10 41 6.4 100.78     Fog
04:00 Legend Double Dagger 1.0 1.0 100 11 41 4.8 100.82     Fog
05:00 Legend Double Dagger 0.8 LegendMM LegendMM 11 39 3.2 100.87     Rain
06:00 Legend Double Dagger 0.8 0.8 100 11 35 4.8 100.93     Fog
07:00 Legend Double Dagger 0.8 0.2 96 10 32 6.4 100.95     Fog
08:00 Legend Double Dagger 1.1 -0.1 92 11 39 8.1 101.03     Fog
09:00 Legend Double Dagger 1.2 -0.1 91 10 32 9.7 101.06     Fog
10:00 Legend Double Dagger 1.2 -0.1 91 10 32 9.7 101.06     Fog
11:00 Legend Double Dagger 1.3 -0.2 90 10 34 11.3 101.05     LegendNANA
12:00 Legend Double Dagger 1.3 0.1 92 10 30 9.7 101.07     Fog
13:00 Legend Double Dagger 1.1 0.4 95 8 28 8.1 101.07     Fog
14:00 Legend Double Dagger 1.0 0.3 95 10 39 8.1 101.04     Rain,Fog
15:00 Legend Double Dagger 0.9 0.6 98 9 34 6.4 101.12     Fog
16:00 Legend Double Dagger 0.8 0.5 98 10 26 8.1 101.14     Fog
17:00 Legend Double Dagger 0.7 0.5 98 10 30 6.4 101.16     Rain,Fog
18:00 Legend Double Dagger 0.8 0.2 96 10 26 8.1 101.19     Fog
19:00 Legend Double Dagger 0.8 -0.1 94 10 30 9.7 101.17     Fog
20:00 Legend Double Dagger 0.5 LegendMM LegendMM 8 26 6.4 101.17     Rain
21:00 Legend Double Dagger 0.5 LegendMM LegendMM 9 28 6.4 101.18     Snow
22:00 Legend Double Dagger 0.6 0.5 99 9 24 9.7 101.19     Fog
23:00 Legend Double Dagger 0.5 LegendMM LegendMM 9 21 6.4 101.18     Haze

Notes on Data Quality.

Legend

  • E = Estimated
  • M = Missing
  • NA = Not Available
  • ‡ = Partner data that is not subject to review by the National Climate Archives
Date modified: